Location: Houhaj�rvi
(61.2667°N, 23.0167°E)
Time: 19:44:34
(UTC+00:00)

Envisat - Pass Details

Date: 13 December 2019
Orbit: 764 x 766 km, 98.1° (Epoch: 17 January)

Event Time Altitude Azimuth Distance (km) Brightness Sun altitude
Rises 14:10:32 0° 116° (ESE) 3,235 6.0 -6.0°
Reaches altitude 10° 14:13:08 10° 104° (ESE) 2,311 5.1 -6.3°
Maximum altitude 14:17:19 27° 49° (NE) 1,468 3.9 -6.7°
Drops below altitude 10° 14:21:31 10° 354° (N) 2,320 5.2 -7.1°
Sets 14:24:07 0° 342° (NNW) 3,250 6.1 -7.3°
